Tracking 25710 objects as of 6-Jul-2022
HD Live streaming from Space Station
objects crossing your sky now

FENGYUN 1C DEB

Track FENGYUN 1C DEB now!
10-day predictions


NORAD ID: 37442
Int'l Code: 1999-025EHL
Perigee: 666.3 km
Apogee: 712.0 km
Inclination: 99.1 °
Period: 98.4 minutes
Semi major axis: 7060 km
RCS: 0.0129 m2 (small)
Launch date: May 10, 1999
Source: People's Republic of China (PRC)
Launch site: Taiyaun Space Center, China (TSC)

Note: This is SATELLITE DEBRIS
aabbcc
Your satellite tracking list
Your tracking list is empty




NASA's NSSDC Master Catalog

Two Line Element Set (TLE):
1 37442U 99025EHL 22183.53240983  .00006856  00000-0  13243-2 0  9995
2 37442  99.1393 289.4427 0032362 284.1684  75.5920 14.63462873680669
Source of the keplerian elements: AFSPC